Location: *
(50.6089°N, 2.2719°E)
Time: 08:04:28
(UTC+00:00)

Cosmos 1939 Rocket - Visible Passes

Search period start: 26 January 2020 00:00
Search period end: 05 February 2020 00:00
Orbit: 533 x 584 km, 97.4° (Epoch: 25 January)

Date Brightness Start Highest point End Pass type
(mag) Time Alt. Az. Time Alt. Az. Time Alt. Az.
26 Jan 6.7 06:02:19 10° E 06:02:36 10° E 06:02:53 10° E visible
26 Jan 2.7 18:24:39 10° SSE 18:28:37 90° NE 18:32:39 10° NNW visible
26 Jan 6.3 20:03:49 10° W 20:04:11 10° W 20:04:35 10° W visible
27 Jan 2.7 18:23:02 10° SSE 18:26:59 87° ENE 18:31:02 10° NNW visible
27 Jan 6.2 20:01:42 10° W 20:02:33 11° W 20:03:25 10° WNW visible
28 Jan 2.7 18:21:24 10° SSE 18:25:22 84° ENE 18:29:26 10° NNW visible
28 Jan 6.2 19:59:46 10° WSW 20:00:54 11° W 20:02:03 10° WNW visible
29 Jan 2.7 18:19:46 10° SSE 18:23:44 81° ENE 18:27:48 10° NNW visible
29 Jan 6.2 19:57:54 10° WSW 19:59:16 11° W 20:00:38 10° WNW visible
30 Jan 2.7 18:18:08 10° SSE 18:22:07 78° ENE 18:26:11 10° N visible
30 Jan 6.2 19:56:04 10° WSW 19:57:37 12° W 19:59:11 10° WNW visible
31 Jan 2.7 18:16:31 10° SSE 18:20:29 76° ENE 18:24:33 10° N visible
31 Jan 6.1 19:54:15 10° WSW 19:55:58 12° W 19:57:42 10° WNW visible
01 Feb 2.7 18:14:53 10° SSE 18:18:52 73° ENE 18:22:57 10° N visible
01 Feb 6.1 19:52:27 10° WSW 19:54:19 13° W 19:56:12 10° WNW visible
02 Feb 2.8 18:13:15 10° SSE 18:17:14 70° ENE 18:21:19 10° N visible
02 Feb 6.1 19:50:40 10° WSW 19:52:40 13° W 19:54:42 10° WNW visible
03 Feb 2.8 18:11:38 10° SSE 18:15:37 68° ENE 18:19:41 10° N visible
03 Feb 6.0 19:48:53 10° WSW 19:51:01 14° W 19:53:10 10° NW visible
04 Feb 2.8 18:10:00 10° SSE 18:13:59 66° ENE 18:18:03 10° N visible
04 Feb 6.0 19:47:08 10° WSW 19:49:22 14° W 19:51:39 10° NW visible
